sat.trackr.live / text

‹ back to catalog

SCS-01 M

NORAD 63993 · 2025-100M

PAYLOAD ACTIVE UNKNOWN

§ Identity

Operator
Country
PRC
Launch date
2025-05-14
Launch site
JSC
Launch vehicle
Mass (kg)
RCS (m²)

External: N2YO · Heavens-Above · Gunter

§ Orbital elements

Epoch: 2026-09-21T12:08:41.649504Z

Period
94.22 min
Inclination
97.3563°
Eccentricity
0.0004520
Mean motion
15.28400133 rev/d
Perigee alt
477.5 km
Apogee alt
483.7 km
Semi-major
6,858.7 km
B*
1.7721e-4
RAAN
340.5185°
Arg perigee
343.8110°
Mean anomaly
16.2984°
Rev number
7,561

§ Raw data

SCS-01 M1 63993U 25100M   26264.50603761  .00004826  00000+0  17721-3 0  99962 63993  97.3563 340.5185 0004520 343.8110  16.2984 15.28400133 75618

JSON: /api/v1/satellites/63993 · /tle

For live sub-satellite position, see the globe view (requires WebGL).

§ Visibility from observer

Set your observer location to see the next 7 days of passes ≥ 10°. The values pass through the URL so the page stays shareable.

No JS? Fill the form by hand. The geolocation button needs JavaScript.